Location: Unspecified
(52.4292°N, 19.3359°E)
Time: 00:49:59
(UTC+02:00)

Vanguard 1 Rocket - Pass Details

Date: 25 May 2024
Orbit: 649 x 4221 km, 34.3° (Epoch: 13 June)

Event Time Altitude Azimuth Distance (km) Brightness Sun altitude
Rises 10:12:51 0° 238° (WSW) 8,207 12.1 47.8°
Reaches altitude 10° 10:19:41 10° 232° (SW) 6,820 11.8 48.7°
Maximum altitude 10:36:46 35° 177° (S) 3,665 11.5 50.7°
Drops below altitude 10° 10:46:57 10° 117° (ESE) 4,093 11.5 51.9°
Sets 10:49:52 0° 108° (ESE) 4,700 11.6 52.2°
